This is the latest recevied weather packets stored in our database for station/object IT9RID. If no packets are shown the sender has not sent any weather packets the latest 10 day(s).
| Time | Temp. | Humidity | Pressure | Rain* | Wind** | Luminosity | Snow |
|---|---|---|---|---|---|---|---|
| 1777921446 | 16.67° C | 70% | 1018.1 hPa | 0 mm | - | - | - |
| 1777920846 | 16.67° C | 71% | 1017.9 hPa | 0 mm | - | - | - |
| 1777920245 | 17.22° C | 70% | 1018 hPa | 0 mm | - | - | - |
| 1777919645 | 17.22° C | 70% | 1018 hPa | 0 mm | - | - | - |
| 1777919046 | 17.78° C | 69% | 1017.9 hPa | 0 mm | - | - | - |
| 1777918445 | 17.78° C | 67% | 1017.9 hPa | 0 mm | - | - | - |
| 1777917846 | 17.78° C | 65% | 1017.9 hPa | 0 mm | - | - | - |
| 1777917245 | 18.33° C | 61% | 1018 hPa | 0 mm | - | - | - |
| 1777916645 | 18.33° C | 56% | 1018 hPa | 0 mm | - | - | - |
| 1777916044 | 18.33° C | 54% | 1017.9 hPa | 0 mm | - | - | - |
| 1777915445 | 18.89° C | 55% | 1017.8 hPa | 0 mm | - | - | - |
| 1777914844 | 19.44° C | 54% | 1017.7 hPa | 0 mm | - | - | - |
| 1777914244 | 19.44° C | 51% | 1017.6 hPa | 0 mm | - | - | - |
| 1777913644 | 20° C | 49% | 1017.5 hPa | 0 mm | - | - | - |
| 1777913044 | 20° C | 48% | 1017.4 hPa | 0 mm | - | - | - |
| 1777912444 | 20° C | 49% | 1017.4 hPa | 0 mm | - | - | - |
| 1777911843 | 20° C | 49% | 1017.5 hPa | 0 mm | - | - | - |
| 1777911243 | 20° C | 49% | 1017.6 hPa | 0 mm | - | - | - |
| 1777910643 | 20° C | 53% | 1017.6 hPa | 0 mm | - | - | - |
| 1777910043 | 20.56° C | 54% | 1017.6 hPa | 0 mm | - | - | - |
| 1777909443 | 20.56° C | 53% | 1017.6 hPa | 0 mm | - | - | - |
| 1777908843 | 20.56° C | 53% | 1017.7 hPa | 0 mm | - | - | - |
| 1777908242 | 20.56° C | 55% | 1017.7 hPa | 0 mm | - | - | - |
| 1777907642 | 20.56° C | 52% | 1017.7 hPa | 0 mm | - | - | - |
| 1777907042 | 20.56° C | 52% | 1017.9 hPa | 0 mm | - | - | - |
* Rain latest hour (hover to see other rain measurements)
** Current wind speed in m/s (hover to see current wind gust speed)